When you browse on this site, cookies collect data to enhance your experience and personalize the content and advertising you see.
Visit our Privacy Policy to learn more. By continuing to use the site, you agree to this use of cookies and data.
  • In Austria
  • List of Countries
  • For 7 days
  • Water Temperature
  • Weather Map
  • News
  • Weather Widgets
  • user-avatar
    Login

    Hourly Weather Patia

    Today, 12 December, Thursday

    Time Temperature Precipitation Wind Pressure Humidity
    00:00 +22°C° 4.8 mm 0 mps 707 mmHg 99%
    01:00 +22°C° 4.8 mm 0 mps 707 mmHg 99%
    02:00 +22°C° 1.9 mm 0 mps 707 mmHg 99%
    03:00 +22°C° 1.9 mm 0 mps 707 mmHg 98%
    04:00 +22°C° 1.9 mm 0 mps 707 mmHg 98%
    05:00 +22°C° 1.6 mm 0 mps 707 mmHg 98%
    06:00 +21°C° 1.6 mm 0 mps 707 mmHg 98%
    07:00 +21°C° 1.6 mm 0 mps 707 mmHg 97%
    08:00 +22°C° 0.7 mm 0 mps 707 mmHg 95%
    09:00 +23°C° 0.7 mm 0 mps 708 mmHg 93%
    10:00 +24°C° 0.7 mm 0 mps 708 mmHg 91%
    11:00 +27°C° 0.2 mm 1 mps 707 mmHg 87%
    12:00 +28°C° 0.2 mm 1 mps 707 mmHg 83%
    13:00 +29°C° 0.2 mm 1 mps 706 mmHg 79%
    14:00 +28°C° 2.5 mm 1 mps 706 mmHg 83%
    15:00 +27°C° 2.5 mm 1 mps 705 mmHg 87%
    16:00 +27°C° 2.5 mm 1 mps 705 mmHg 91%
    17:00 +26°C° 2.1 mm 1 mps 705 mmHg 93%
    18:00 +25°C° 2.1 mm 1 mps 705 mmHg 95%
    19:00 +24°C° 2.1 mm 1 mps 706 mmHg 97%
    20:00 +22°C° 3.2 mm 0 mps 706 mmHg 98%
    21:00 +22°C° 3.2 mm 0 mps 707 mmHg 98%
    22:00 +22°C° 3.2 mm 0 mps 708 mmHg 98%
    23:00 +22°C° 0.8 mm 0 mps 707 mmHg 98%

    Tomorrow, 13 December, Friday

    Time Temperature Precipitation Wind Pressure Humidity
    00:00 +22°C° 0.8 mm 0 mps 707 mmHg 98%
    01:00 +21°C° 0.8 mm 0 mps 707 mmHg 99%
    02:00 +21°C° 0.2 mm 0 mps 706 mmHg 98%
    03:00 +21°C° 0.2 mm 0 mps 706 mmHg 98%
    04:00 +21°C° 0.2 mm 0 mps 706 mmHg 98%
    05:00 +21°C° 0.4 mm 0 mps 706 mmHg 98%
    06:00 +21°C° 0.4 mm 0 mps 707 mmHg 98%
    07:00 +21°C° 0.4 mm 0 mps 707 mmHg 97%
    08:00 +22°C° 0.5 mm 0 mps 707 mmHg 96%
    09:00 +23°C° 0.5 mm 0 mps 708 mmHg 94%
    10:00 +24°C° 0.5 mm 0 mps 708 mmHg 92%
    11:00 +24°C° 0.8 mm 0 mps 708 mmHg 92%
    12:00 +24°C° 0.8 mm 0 mps 707 mmHg 92%
    13:00 +24°C° 0.8 mm 0 mps 706 mmHg 92%
    14:00 +24°C° 0.4 mm 0 mps 706 mmHg 92%
    15:00 +24°C° 0.4 mm 0 mps 705 mmHg 91%
    16:00 +24°C° 0.4 mm 0 mps 705 mmHg 91%
    17:00 +23°C° 0.3 mm 0 mps 705 mmHg 92%
    18:00 +23°C° 0.3 mm 0 mps 706 mmHg 94%
    19:00 +22°C° 0.3 mm 0 mps 706 mmHg 96%
    20:00 +22°C° 0.1 mm 0 mps 706 mmHg 95%
    21:00 +22°C° 0.1 mm 0 mps 707 mmHg 95%
    22:00 +21°C° 0.1 mm 0 mps 708 mmHg 94%
    23:00 +21°C° 0 mm 0 mps 707 mmHg 94%

    Day after tomorrow, 14 December, Saturday

    Time Temperature Precipitation Wind Pressure Humidity
    00:00 +21°C° 0 mm 0 mps 707 mmHg 94%
    01:00 +21°C° 0 mm 0 mps 707 mmHg 94%
    02:00 +21°C° 0 mm 0 mps 707 mmHg 95%
    03:00 +21°C° 0 mm 0 mps 706 mmHg 95%
    04:00 +21°C° 0 mm 0 mps 706 mmHg 95%
    05:00 +21°C° 0 mm 0 mps 707 mmHg 94%
    06:00 +21°C° 0 mm 0 mps 707 mmHg 93%
    07:00 +22°C° 0 mm 0 mps 708 mmHg 93%
    08:00 +23°C° 0.1 mm 0 mps 708 mmHg 88%
    09:00 +27°C° 0.1 mm 1 mps 708 mmHg 83%
    10:00 +28°C° 0.1 mm 1 mps 709 mmHg 78%
    11:00 +29°C° 0.4 mm 1 mps 708 mmHg 78%
    12:00 +29°C° 0.4 mm 1 mps 707 mmHg 77%
    13:00 +30°C° 0.4 mm 1 mps 707 mmHg 77%
    14:00 +29°C° 1.1 mm 1 mps 706 mmHg 80%
    15:00 +29°C° 1.1 mm 1 mps 706 mmHg 83%
    16:00 +28°C° 1.1 mm 1 mps 705 mmHg 87%
    17:00 +27°C° 1.5 mm 1 mps 706 mmHg 90%
    18:00 +26°C° 1.5 mm 1 mps 706 mmHg 93%
    19:00 +23°C° 1.5 mm 0 mps 707 mmHg 96%
    20:00 +22°C° 1.9 mm 0 mps 707 mmHg 96%
    21:00 +22°C° 1.9 mm 0 mps 708 mmHg 96%
    22:00 +22°C° 1.9 mm 0 mps 708 mmHg 97%
    23:00 +22°C° 1.6 mm 0 mps 708 mmHg 97%

    15 December, Sunday

    Time Temperature Precipitation Wind Pressure Humidity
    00:00 +22°C° 1.6 mm 0 mps 708 mmHg 97%
    01:00 +22°C° 1.6 mm 0 mps 707 mmHg 97%
    02:00 +22°C° 0.7 mm 0 mps 707 mmHg 97%
    03:00 +22°C° 0.7 mm 0 mps 707 mmHg 98%
    04:00 +22°C° 0.7 mm 0 mps 707 mmHg 98%
    05:00 +22°C° 0.6 mm 0 mps 707 mmHg 97%
    06:00 +22°C° 0.6 mm 0 mps 708 mmHg 97%
    07:00 +22°C° 0.6 mm 0 mps 708 mmHg 96%
    08:00 +23°C° 0.1 mm 0 mps 709 mmHg 95%
    09:00 +23°C° 0.1 mm 0 mps 709 mmHg 93%
    10:00 +24°C° 0.1 mm 0 mps 709 mmHg 91%
    11:00 +25°C° 0.3 mm 0 mps 709 mmHg 87%
    12:00 +26°C° 0.3 mm 0 mps 708 mmHg 82%
    13:00 +28°C° 0.3 mm 0 mps 707 mmHg 77%
    14:00 +27°C° 0.7 mm 0 mps 707 mmHg 79%
    15:00 +27°C° 0.7 mm 0 mps 706 mmHg 81%
    16:00 +26°C° 0.7 mm 0 mps 706 mmHg 83%
    17:00 +27°C° 0.8 mm 1 mps 706 mmHg 87%
    18:00 +26°C° 0.8 mm 1 mps 707 mmHg 91%
    19:00 +25°C° 0.8 mm 1 mps 707 mmHg 96%
    20:00 +25°C° 0.8 mm 1 mps 707 mmHg 96%
    21:00 +22°C° 0.8 mm 0 mps 708 mmHg 96%
    22:00 +22°C° 0.8 mm 0 mps 708 mmHg 96%
    23:00 +22°C° 0.9 mm 0 mps 708 mmHg 96%

    16 December, Monday

    Time Temperature Precipitation Wind Pressure Humidity
    00:00 +22°C° 0.9 mm 0 mps 708 mmHg 96%
    01:00 +22°C° 0.9 mm 0 mps 708 mmHg 96%
    02:00 +22°C° 0.2 mm 0 mps 707 mmHg 96%
    03:00 +22°C° 0.2 mm 0 mps 707 mmHg 96%
    04:00 +22°C° 0.2 mm 0 mps 706 mmHg 96%
    05:00 +22°C° 0 mm 0 mps 707 mmHg 95%
    06:00 +22°C° 0 mm 0 mps 707 mmHg 95%
    07:00 +22°C° 0 mm 0 mps 708 mmHg 94%
    08:00 +23°C° 0.1 mm 0 mps 708 mmHg 90%
    09:00 +25°C° 0.1 mm 0 mps 709 mmHg 86%
    10:00 +26°C° 0.1 mm 0 mps 709 mmHg 82%
    11:00 +27°C° 0.4 mm 0 mps 708 mmHg 80%
    12:00 +27°C° 0.4 mm 0 mps 707 mmHg 78%
    13:00 +28°C° 0.4 mm 0 mps 707 mmHg 76%
    14:00 +29°C° 0.9 mm 1 mps 706 mmHg 79%
    15:00 +29°C° 0.9 mm 1 mps 706 mmHg 81%
    16:00 +29°C° 0.9 mm 1 mps 705 mmHg 83%
    17:00 +27°C° 0.8 mm 1 mps 706 mmHg 87%
    18:00 +26°C° 0.8 mm 1 mps 706 mmHg 91%
    19:00 +25°C° 0.8 mm 1 mps 706 mmHg 95%
    20:00 +23°C° 0.4 mm 0 mps 707 mmHg 95%
    21:00 +23°C° 0.4 mm 0 mps 707 mmHg 95%
    22:00 +22°C° 0.4 mm 0 mps 708 mmHg 94%
    23:00 +22°C° 0.4 mm 0 mps 707 mmHg 95%

    17 December, Tuesday

    Time Temperature Precipitation Wind Pressure Humidity
    00:00 +22°C° 0.4 mm 0 mps 707 mmHg 95%
    01:00 +22°C° 0.4 mm 0 mps 707 mmHg 95%
    02:00 +22°C° 0.6 mm 0 mps 707 mmHg 95%
    03:00 +22°C° 0.6 mm 0 mps 706 mmHg 96%
    04:00 +22°C° 0.6 mm 0 mps 706 mmHg 96%
    05:00 +22°C° 0.2 mm 0 mps 706 mmHg 96%
    06:00 +22°C° 0.2 mm 0 mps 707 mmHg 95%
    07:00 +22°C° 0.2 mm 0 mps 707 mmHg 95%
    08:00 +24°C° 0.2 mm 0 mps 707 mmHg 91%
    09:00 +27°C° 0.2 mm 1 mps 707 mmHg 86%
    10:00 +29°C° 0.2 mm 1 mps 708 mmHg 82%
    11:00 +29°C° 0.7 mm 1 mps 707 mmHg 80%
    12:00 +30°C° 0.7 mm 1 mps 706 mmHg 78%
    13:00 +30°C° 0.7 mm 1 mps 706 mmHg 76%
    14:00 +30°C° 1.8 mm 1 mps 705 mmHg 80%
    15:00 +29°C° 1.8 mm 1 mps 705 mmHg 84%
    16:00 +28°C° 1.8 mm 1 mps 704 mmHg 88%
    17:00 +27°C° 1.8 mm 1 mps 705 mmHg 91%
    18:00 +26°C° 1.8 mm 1 mps 705 mmHg 93%
    19:00 +25°C° 1.8 mm 1 mps 705 mmHg 95%
    20:00 +23°C° 2.4 mm 0 mps 706 mmHg 95%
    21:00 +23°C° 2.4 mm 0 mps 707 mmHg 95%
    22:00 +22°C° 2.4 mm 0 mps 707 mmHg 95%
    23:00 +22°C° 1.5 mm 0 mps 707 mmHg 96%
    Show more